time, Switch, Flow(0), Analog(2)
yyyy/mm/dd HH:MM:SS.fff, True=FILTERED|False=TOTAL, L/min, V
2023/06/21 13:00:03.018, True, 4.317, 0.122835
2023/06/21 13:00:03.523, True, 4.304, 0.125048
2023/06/21 13:00:04.019, True, 3.711, 0.125200
2023/06/21 13:00:04.522, True, 2.318, 0.123827
2023/06/21 13:00:05.027, True, 1.993, 0.124361
2023/06/21 13:00:05.523, True, 1.682, 0.122911
2023/06/21 13:00:06.026, True, 1.659, 0.124514
2023/06/21 13:00:06.530, True, 1.660, 0.126726
2023/06/21 13:00:07.035, True, 1.324, 0.122911
2023/06/21 13:00:07.531, True, 1.688, 0.126345
2023/06/21 13:00:08.035, True, 1.655, 0.125963
2023/06/21 13:00:08.531, True, 1.685, 0.124743
2023/06/21 13:00:09.034, True, 1.326, 0.123598
2023/06/21 13:00:09.539, True, 1.658, 0.123140
2023/06/21 13:00:10.043, True, 1.658, 0.124514
2023/06/21 13:00:10.539, True, 1.685, 0.123674
2023/06/21 13:00:11.043, True, 1.327, 0.124819
2023/06/21 13:00:11.538, True, 1.688, 0.123751
2023/06/21 13:00:12.043, True, 1.324, 0.125429
2023/06/21 13:00:12.547, True, 1.658, 0.125582
2023/06/21 13:00:13.043, True, 1.685, 0.124666
2023/06/21 13:00:13.547, True, 1.658, 0.124743
2023/06/21 13:00:14.051, True, 1.660, 0.124590
2023/06/21 13:00:14.547, True, 1.346, 0.123522
2023/06/21 13:00:15.051, True, 1.658, 0.126574
2023/06/21 13:00:15.555, True, 1.658, 0.125658
2023/06/21 13:00:16.051, True, 1.685, 0.123903
2023/06/21 13:00:16.555, True, 1.658, 0.124437
2023/06/21 13:00:17.059, True, 1.326, 0.127642
2023/06/21 13:00:17.555, True, 1.685, 0.124743
2023/06/21 13:00:18.059, True, 1.658, 0.123674
2023/06/21 13:00:18.563, True, 1.658, 0.124437
2023/06/21 13:00:19.059, True, 1.685, 0.125811
2023/06/21 13:00:19.563, True, 1.658, 0.125124
2023/06/21 13:00:20.067, True, 1.660, 0.124590
2023/06/21 13:00:20.563, True, 1.346, 0.122835
2023/06/21 13:00:21.067, True, 1.658, 0.125963
2023/06/21 13:00:21.571, True, 1.658, 0.123598
2023/06/21 13:00:22.067, True, 1.688, 0.125887
2023/06/21 13:00:22.571, True, 1.655, 0.124208
2023/06/21 13:00:23.066, True, 1.348, 0.122683
2023/06/21 13:00:23.571, True, 1.658, 0.123980
2023/06/21 13:00:24.075, True, 1.658, 0.122835
2023/06/21 13:00:24.571, True, 1.685, 0.123140
2023/06/21 13:00:25.075, True, 1.658, 0.124285
2023/06/21 13:00:25.579, True, 1.326, 0.122683
2023/06/21 13:00:26.075, True, 1.685, 0.123827
2023/06/21 13:00:26.579, True, 1.659, 0.123827
2023/06/21 13:00:27.074, True, 1.684, 0.124208
2023/06/21 13:00:27.579, True, 1.326, 0.123217
2023/06/21 13:00:28.083, True, 1.658, 0.123674
2023/06/21 13:00:28.579, True, 1.685, 0.125429
2023/06/21 13:00:29.083, True, 1.658, 0.121843
2023/06/21 13:00:29.587, True, 1.658, 0.123140
2023/06/21 13:00:30.082, True, 1.685, 0.125887
2023/06/21 13:00:30.587, True, 1.658, 0.121996
2023/06/21 13:00:31.091, True, 1.327, 0.122835
2023/06/21 13:00:31.587, True, 1.685, 0.123369
2023/06/21 13:00:32.091, True, 1.658, 0.124361
2023/06/21 13:00:32.595, True, 1.658, 0.126650
2023/06/21 13:00:33.091, True, 1.348, 0.123140
2023/06/21 13:00:33.595, True, 1.658, 0.123217
2023/06/21 13:00:34.098, True, 1.658, 0.124743
2023/06/21 13:00:34.603, True, 1.658, 0.125582
2023/06/21 13:00:35.099, True, 1.348, 0.123522
2023/06/21 13:00:35.603, True, 1.659, 0.125963
2023/06/21 13:00:36.107, True, 1.657, 0.123674
2023/06/21 13:00:36.603, True, 1.685, 0.124895
2023/06/21 13:00:37.107, True, 1.658, 0.124132
2023/06/21 13:00:37.611, True, 1.327, 0.123827
2023/06/21 13:00:38.107, True, 1.684, 0.125429
2023/06/21 13:00:38.611, True, 1.326, 0.123903
2023/06/21 13:00:39.115, True, 1.658, 0.123903
2023/06/21 13:00:39.611, True, 1.686, 0.123293
2023/06/21 13:00:40.114, True, 1.661, 0.123674
2023/06/21 13:00:40.619, True, 1.324, 0.125353
2023/06/21 13:00:41.114, True, 1.685, 0.125658
2023/06/21 13:00:41.618, True, 1.658, 0.124971
2023/06/21 13:00:42.123, True, 1.658, 0.125887
2023/06/21 13:00:42.619, True, 1.348, 0.125429
2023/06/21 13:00:43.123, True, 1.658, 0.127031
2023/06/21 13:00:43.627, True, 1.658, 0.125353
2023/06/21 13:00:44.131, True, 1.326, 0.127108
2023/06/21 13:00:44.627, True, 1.686, 0.128099
2023/06/21 13:00:45.130, True, 1.658, 0.128786
2023/06/21 13:00:45.634, True, 1.326, 0.125963
2023/06/21 13:00:46.130, True, 1.685, 0.128023
2023/06/21 13:00:46.635, True, 1.658, 0.129015
2023/06/21 13:00:47.139, True, 1.658, 0.129015
2023/06/21 13:00:47.635, True, 1.685, 0.130694
2023/06/21 13:00:48.138, True, 1.659, 0.128862
2023/06/21 13:00:48.643, True, 1.325, 0.128634
2023/06/21 13:00:49.138, True, 1.686, 0.131456
2023/06/21 13:00:49.643, True, 1.326, 0.131380
2023/06/21 13:00:50.139, True, 1.685, 0.131914
2023/06/21 13:00:50.643, True, 1.657, 0.130388
2023/06/21 13:00:51.146, True, 1.658, 0.129931
2023/06/21 13:00:51.643, True, 1.348, 0.133669
2023/06/21 13:00:52.147, True, 1.658, 0.130922
2023/06/21 13:00:52.651, True, 1.326, 0.132143
2023/06/21 13:00:53.147, True, 1.684, 0.134813
2023/06/21 13:00:53.650, True, 1.658, 0.133822
2023/06/21 13:00:54.154, True, 1.658, 0.132906
2023/06/21 13:00:54.650, True, 1.685, 0.135119
2023/06/21 13:00:55.154, True, 1.658, 0.133593
2023/06/21 13:00:55.659, True, 1.658, 0.132525
2023/06/21 13:00:56.154, True, 1.348, 0.136568
2023/06/21 13:00:56.658, True, 1.658, 0.136721
2023/06/21 13:00:57.162, True, 1.658, 0.135882
2023/06/21 13:00:57.659, True, 1.350, 0.134661
2023/06/21 13:00:58.163, True, 1.655, 0.135653
2023/06/21 13:00:58.666, True, 1.658, 0.136416
2023/06/21 13:00:59.163, True, 1.348, 0.136797
2023/06/21 13:00:59.667, True, 1.658, 0.137407
2023/06/21 13:01:00.170, True, 1.658, 0.135119
2023/06/21 13:01:00.667, True, 1.685, 0.135271
2023/06/21 13:01:01.170, True, 1.658, 0.134813
2023/06/21 13:01:01.675, True, 1.659, 0.138628
2023/06/21 13:01:02.170, True, 1.348, 0.138628
2023/06/21 13:01:02.674, True, 1.656, 0.135576
2023/06/21 13:01:03.179, True, 1.326, 0.136568
2023/06/21 13:01:03.674, True, 1.685, 0.136492
2023/06/21 13:01:04.178, True, 1.661, 0.136492
2023/06/21 13:01:04.683, True, 1.656, 0.137560
2023/06/21 13:01:05.179, True, 1.685, 0.136263
2023/06/21 13:01:05.682, True, 1.327, 0.137179
2023/06/21 13:01:06.186, True, 1.659, 0.135424
2023/06/21 13:01:06.691, True, 1.657, 0.136873
2023/06/21 13:01:07.186, True, 1.684, 0.136568
2023/06/21 13:01:07.691, True, 1.658, 0.136873
2023/06/21 13:01:08.194, True, 1.328, 0.137026
2023/06/21 13:01:08.691, True, 1.683, 0.140154
2023/06/21 13:01:09.195, True, 1.327, 0.138094
2023/06/21 13:01:09.699, True, 1.657, 0.136797
2023/06/21 13:01:10.194, True, 1.685, 0.136873
2023/06/21 13:01:10.698, True, 1.659, 0.139467
2023/06/21 13:01:11.203, True, 1.657, 0.135729
2023/06/21 13:01:11.699, True, 1.686, 0.137179
2023/06/21 13:01:12.203, True, 1.325, 0.136568
2023/06/21 13:01:12.707, True, 1.658, 0.137179
2023/06/21 13:01:13.211, True, 1.658, 0.137331
2023/06/21 13:01:13.706, True, 1.348, 0.138933
2023/06/21 13:01:14.210, True, 1.658, 0.136950
2023/06/21 13:01:14.714, True, 1.326, 0.137789
2023/06/21 13:01:15.211, True, 1.685, 0.136645
2023/06/21 13:01:15.713, True, 1.658, 0.138705
2023/06/21 13:01:16.218, True, 1.327, 0.137102
2023/06/21 13:01:16.715, True, 1.684, 0.138933
2023/06/21 13:01:17.218, True, 1.658, 0.138857
2023/06/21 13:01:17.722, True, 1.658, 0.140154
2023/06/21 13:01:18.226, True, 1.657, 0.134432
2023/06/21 13:01:18.722, True, 1.348, 0.138018
2023/06/21 13:01:19.226, True, 1.658, 0.139849
2023/06/21 13:01:19.722, True, 1.348, 0.137255
2023/06/21 13:01:20.226, True, 1.658, 0.137789
2023/06/21 13:01:20.730, True, 1.658, 0.138323
2023/06/21 13:01:21.226, True, 1.685, 0.139239
2023/06/21 13:01:21.730, True, 1.659, 0.137179
2023/06/21 13:01:22.234, True, 1.326, 0.136950
2023/06/21 13:01:22.729, True, 1.684, 0.136645
2023/06/21 13:01:23.234, True, 1.658, 0.138018
2023/06/21 13:01:23.738, True, 1.659, 0.138628
2023/06/21 13:01:24.234, True, 1.684, 0.136721
2023/06/21 13:01:24.737, True, 1.326, 0.137026
2023/06/21 13:01:25.242, True, 1.658, 0.137865
2023/06/21 13:01:25.739, True, 1.688, 0.138781
2023/06/21 13:01:26.242, True, 1.656, 0.137484
2023/06/21 13:01:26.746, True, 1.659, 0.137331
2023/06/21 13:01:27.242, True, 1.684, 0.139620
2023/06/21 13:01:27.746, True, 1.656, 0.137713
2023/06/21 13:01:28.242, True, 1.686, 0.137026
2023/06/21 13:01:28.746, True, 1.660, 0.139086
2023/06/21 13:01:29.250, True, 1.324, 0.140078
2023/06/21 13:01:29.746, True, 1.685, 0.139239
2023/06/21 13:01:30.250, True, 1.661, 0.138018
2023/06/21 13:01:30.754, True, 1.658, 0.136797
2023/06/21 13:01:31.258, True, 1.658, 0.138094
2023/06/21 13:01:31.754, True, 1.346, 0.138247
2023/06/21 13:01:32.258, True, 1.659, 0.135271
2023/06/21 13:01:32.754, True, 1.684, 0.137407
2023/06/21 13:01:33.258, True, 1.326, 0.138781
2023/06/21 13:01:33.762, True, 1.658, 0.139544
2023/06/21 13:01:34.258, True, 1.348, 0.136797
2023/06/21 13:01:34.762, True, 1.658, 0.138857
2023/06/21 13:01:35.267, True, 1.659, 0.137407
2023/06/21 13:01:35.762, True, 1.684, 0.138247
2023/06/21 13:01:36.266, True, 1.658, 0.136492
2023/06/21 13:01:36.770, True, 1.659, 0.137865
2023/06/21 13:01:37.266, True, 1.348, 0.137407
2023/06/21 13:01:37.769, True, 1.657, 0.139315
2023/06/21 13:01:38.274, True, 1.659, 0.136339
2023/06/21 13:01:38.770, True, 1.685, 0.137026
2023/06/21 13:01:39.274, True, 1.657, 0.135958
2023/06/21 13:01:39.778, True, 1.659, 0.136568
2023/06/21 13:01:40.274, True, 1.685, 0.138628
2023/06/21 13:01:40.778, True, 1.656, 0.135653
2023/06/21 13:01:41.282, True, 1.658, 0.137484
2023/06/21 13:01:41.778, True, 1.349, 0.137713
2023/06/21 13:01:42.282, True, 1.658, 0.138323
2023/06/21 13:01:42.778, True, 1.684, 0.134508
2023/06/21 13:01:43.282, True, 1.658, 0.137179
2023/06/21 13:01:43.786, True, 1.326, 0.137484
2023/06/21 13:01:44.282, True, 1.685, 0.139239
2023/06/21 13:01:44.786, True, 1.326, 0.137255
2023/06/21 13:01:45.290, True, 1.658, 0.135042
2023/06/21 13:01:45.786, True, 1.348, 0.134432
2023/06/21 13:01:46.290, True, 1.658, 0.137865
2023/06/21 13:01:46.794, True, 1.658, 0.137713
2023/06/21 13:01:47.290, True, 1.684, 0.139162
2023/06/21 13:01:47.794, True, 1.658, 0.139086
2023/06/21 13:01:48.298, True, 1.658, 0.137407
2023/06/21 13:01:48.794, True, 1.685, 0.136950
2023/06/21 13:01:49.298, True, 1.660, 0.138094
2023/06/21 13:01:49.802, True, 1.325, 0.136416
2023/06/21 13:01:50.298, True, 1.348, 0.137331
2023/06/21 13:01:50.802, True, 1.658, 0.136034
2023/06/21 13:01:51.298, True, 1.685, 0.138018
2023/06/21 13:01:51.802, True, 1.326, 0.138094
2023/06/21 13:01:52.306, True, 1.658, 0.137255
2023/06/21 13:01:52.802, True, 1.685, 0.134737
2023/06/21 13:01:53.306, True, 1.658, 0.134203
2023/06/21 13:01:53.811, True, 1.658, 0.138705
2023/06/21 13:01:54.306, True, 1.348, 0.138857
2023/06/21 13:01:54.810, True, 1.658, 0.136034
2023/06/21 13:01:55.315, True, 1.658, 0.135729
2023/06/21 13:01:55.810, True, 1.348, 0.136110
2023/06/21 13:01:56.314, True, 1.658, 0.136339
2023/06/21 13:01:56.818, True, 1.658, 0.135805
2023/06/21 13:01:57.314, True, 1.347, 0.137026
2023/06/21 13:01:57.818, True, 1.661, 0.136339
2023/06/21 13:01:58.322, True, 1.655, 0.134737
2023/06/21 13:01:58.818, True, 1.349, 0.136721
2023/06/21 13:01:59.322, True, 1.657, 0.138170
2023/06/21 13:01:59.826, True, 1.658, 0.136110
2023/06/21 13:02:00.322, True, 1.685, 0.135424
2023/06/21 13:02:00.826, True, 1.659, 0.135424
2023/06/21 13:02:01.330, True, 1.325, 0.134813
2023/06/21 13:02:01.826, True, 1.685, 0.135958
2023/06/21 13:02:02.330, True, 1.657, 0.135500
2023/06/21 13:02:02.834, True, 1.658, 0.134127
2023/06/21 13:02:03.329, True, 1.347, 0.136416
2023/06/21 13:02:03.834, True, 1.659, 0.135729
2023/06/21 13:02:04.338, True, 1.658, 0.136950
2023/06/21 13:02:04.834, True, 1.348, 0.134966
2023/06/21 13:02:05.338, True, 1.657, 0.135348
2023/06/21 13:02:05.842, True, 1.659, 0.137407
2023/06/21 13:02:06.338, True, 1.684, 0.137789
2023/06/21 13:02:06.842, True, 1.662, 0.136950
2023/06/21 13:02:07.346, True, 1.655, 0.136187
2023/06/21 13:02:07.850, True, 1.326, 0.136034
2023/06/21 13:02:08.346, True, 1.685, 0.135042
2023/06/21 13:02:08.850, True, 1.658, 0.135653
2023/06/21 13:02:09.354, True, 1.659, 0.136339
2023/06/21 13:02:09.850, True, 1.347, 0.133669
2023/06/21 13:02:10.354, True, 1.658, 0.135805
2023/06/21 13:02:10.858, True, 1.658, 0.135576
2023/06/21 13:02:11.354, True, 1.687, 0.135348
2023/06/21 13:02:11.858, True, 1.655, 0.135653
2023/06/21 13:02:12.362, True, 1.658, 0.134890
2023/06/21 13:02:12.858, True, 1.348, 0.134279
2023/06/21 13:02:13.362, True, 1.658, 0.134737
2023/06/21 13:02:13.866, True, 1.328, 0.132982
2023/06/21 13:02:14.362, True, 1.686, 0.134356
2023/06/21 13:02:14.866, True, 1.325, 0.134585
2023/06/21 13:02:15.370, True, 1.658, 0.134813
2023/06/21 13:02:15.866, True, 1.684, 0.136263
2023/06/21 13:02:16.370, True, 1.658, 0.135195
2023/06/21 13:02:16.874, True, 1.326, 0.134127
2023/06/21 13:02:17.370, True, 1.685, 0.138018
2023/06/21 13:02:17.874, True, 1.326, 0.136416
2023/06/21 13:02:18.378, True, 1.658, 0.135958
2023/06/21 13:02:18.874, True, 1.684, 0.135042
2023/06/21 13:02:19.378, True, 1.658, 0.134432
2023/06/21 13:02:19.882, True, 1.658, 0.134813
2023/06/21 13:02:20.378, True, 1.685, 0.135653
2023/06/21 13:02:20.882, True, 1.658, 0.136110
2023/06/21 13:02:21.386, True, 1.659, 0.134279
2023/06/21 13:02:21.882, True, 1.684, 0.136492
2023/06/21 13:02:22.386, True, 1.658, 0.137484
2023/06/21 13:02:22.890, True, 1.658, 0.134508
2023/06/21 13:02:23.394, True, 1.659, 0.135348
2023/06/21 13:02:23.890, True, 1.347, 0.135119
2023/06/21 13:02:24.394, True, 1.658, 0.135729
2023/06/21 13:02:24.890, True, 1.685, 0.135500
2023/06/21 13:02:25.394, True, 1.326, 0.135195
2023/06/21 13:02:25.898, True, 1.658, 0.136263
2023/06/21 13:02:26.394, True, 1.685, 0.136568
2023/06/21 13:02:26.898, True, 1.658, 0.136873
2023/06/21 13:02:27.402, True, 1.658, 0.136492
2023/06/21 13:02:27.906, True, 1.658, 0.138552
2023/06/21 13:02:28.402, True, 1.685, 0.132753
2023/06/21 13:02:28.906, True, 1.326, 0.133288
2023/06/21 13:02:29.410, True, 1.658, 0.136263
2023/06/21 13:02:29.906, True, 1.685, 0.134585
2023/06/21 13:02:30.410, True, 1.658, 0.135042
2023/06/21 13:02:30.914, True, 1.658, 0.134585
2023/06/21 13:02:31.410, True, 1.348, 0.135271
2023/06/21 13:02:31.914, True, 1.658, 0.135576
2023/06/21 13:02:32.418, True, 1.658, 0.133974
2023/06/21 13:02:32.914, True, 1.684, 0.136492
2023/06/21 13:02:33.418, True, 1.658, 0.133974
2023/06/21 13:02:33.922, True, 1.658, 0.132219
2023/06/21 13:02:34.418, True, 1.348, 0.133593
2023/06/21 13:02:34.922, True, 1.658, 0.136492
2023/06/21 13:02:35.425, True, 1.661, 0.133364
2023/06/21 13:02:35.922, True, 1.681, 0.133974
2023/06/21 13:02:36.426, True, 1.658, 0.133135
2023/06/21 13:02:36.930, True, 1.326, 0.132753
2023/06/21 13:02:37.434, True, 1.658, 0.134432
2023/06/21 13:02:37.930, True, 1.685, 0.135500
2023/06/21 13:02:38.434, True, 1.658, 0.135729
2023/06/21 13:02:38.930, True, 1.685, 0.135119
2023/06/21 13:02:39.434, True, 1.660, 0.131838
2023/06/21 13:02:39.938, True, 1.325, 0.135729
2023/06/21 13:02:40.434, True, 1.685, 0.135348
2023/06/21 13:02:40.938, True, 1.658, 0.134585
2023/06/21 13:02:41.442, True, 1.658, 0.134661
2023/06/21 13:02:41.946, True, 1.658, 0.133059
2023/06/21 13:02:42.442, True, 1.685, 0.131533
2023/06/21 13:02:42.946, True, 1.659, 0.134051
2023/06/21 13:02:43.442, True, 1.347, 0.133745
2023/06/21 13:02:43.946, True, 1.658, 0.133440
2023/06/21 13:02:44.450, True, 1.658, 0.135348
2023/06/21 13:02:44.954, True, 1.658, 0.133593
2023/06/21 13:02:45.450, True, 1.685, 0.136263
2023/06/21 13:02:45.954, True, 1.658, 0.136492
2023/06/21 13:02:46.457, True, 1.658, 0.133593
2023/06/21 13:02:46.953, True, 1.348, 0.135271
2023/06/21 13:02:47.458, True, 1.658, 0.134279
2023/06/21 13:02:47.954, True, 1.348, 0.134127
2023/06/21 13:02:48.458, True, 1.658, 0.132372
2023/06/21 13:02:48.962, True, 1.658, 0.133288
2023/06/21 13:02:49.458, True, 1.684, 0.133059
2023/06/21 13:02:49.962, True, 1.327, 0.133593
2023/06/21 13:02:50.466, True, 1.658, 0.135042
2023/06/21 13:02:50.962, True, 1.686, 0.133822
2023/06/21 13:02:51.466, True, 1.657, 0.135500
2023/06/21 13:02:51.969, True, 1.658, 0.133059
2023/06/21 13:02:52.466, True, 1.348, 0.134279
2023/06/21 13:02:52.969, True, 1.658, 0.131991
2023/06/21 13:02:53.466, True, 1.685, 0.132753
2023/06/21 13:02:53.969, True, 1.326, 0.134127
2023/06/21 13:02:54.474, True, 1.658, 0.132372
2023/06/21 13:02:54.969, True, 1.685, 0.134432
2023/06/21 13:02:55.474, True, 1.658, 0.133593
2023/06/21 13:02:55.978, True, 1.326, 0.134966
2023/06/21 13:02:56.474, True, 1.685, 0.134890
2023/06/21 13:02:56.978, True, 1.660, 0.133898
2023/06/21 13:02:57.482, True, 1.657, 0.135119
2023/06/21 13:02:57.978, True, 1.685, 0.136187
2023/06/21 13:02:58.482, True, 1.659, 0.133211
2023/06/21 13:02:58.978, True, 1.684, 0.133135
2023/06/21 13:02:59.482, True, 1.326, 0.134127
2023/06/21 13:02:59.986, True, 1.659, 0.135195
2023/06/21 13:03:00.482, True, 1.685, 0.133059
2023/06/21 13:03:00.986, True, 1.657, 0.134279
2023/06/21 13:03:01.490, True, 1.328, 0.134585
2023/06/21 13:03:01.986, True, 1.685, 0.131914
2023/06/21 13:03:02.490, True, 1.657, 0.136263
2023/06/21 13:03:02.994, True, 1.661, 0.131609
2023/06/21 13:03:03.490, True, 1.346, 0.135119
2023/06/21 13:03:03.994, True, 1.659, 0.132677
2023/06/21 13:03:04.498, True, 1.325, 0.131304
2023/06/21 13:03:05.002, True, 1.659, 0.131838
2023/06/21 13:03:05.498, True, 1.348, 0.133135
2023/06/21 13:03:06.002, True, 1.658, 0.132677
2023/06/21 13:03:06.498, True, 1.346, 0.133364
2023/06/21 13:03:07.002, True, 1.660, 0.133440
2023/06/21 13:03:07.506, True, 1.658, 0.133593
2023/06/21 13:03:08.010, True, 1.325, 0.132525
2023/06/21 13:03:08.506, True, 1.684, 0.134356
2023/06/21 13:03:09.009, True, 1.658, 0.131533
2023/06/21 13:03:09.514, True, 1.658, 0.133059
2023/06/21 13:03:10.010, True, 1.686, 0.133059
2023/06/21 13:03:10.514, True, 1.657, 0.131914
2023/06/21 13:03:11.017, True, 1.328, 0.133669
2023/06/21 13:03:11.514, True, 1.682, 0.133364
2023/06/21 13:03:12.018, True, 1.329, 0.133288
2023/06/21 13:03:12.522, True, 1.324, 0.131609
2023/06/21 13:03:13.018, True, 1.685, 0.131685
2023/06/21 13:03:13.522, True, 1.661, 0.131991
2023/06/21 13:03:14.026, True, 1.324, 0.131762
2023/06/21 13:03:14.522, True, 1.685, 0.134051
2023/06/21 13:03:15.026, True, 1.329, 0.133516
2023/06/21 13:03:15.530, True, 1.654, 0.132067
2023/06/21 13:03:16.026, True, 1.685, 0.134356
2023/06/21 13:03:16.530, True, 1.658, 0.134051
2023/06/21 13:03:17.026, True, 1.685, 0.131533
2023/06/21 13:03:17.530, True, 1.326, 0.132982
2023/06/21 13:03:18.034, True, 1.658, 0.133364
2023/06/21 13:03:18.530, True, 1.685, 0.133288
2023/06/21 13:03:19.034, True, 1.328, 0.132677
2023/06/21 13:03:19.538, True, 1.656, 0.132448
2023/06/21 13:03:20.034, True, 1.685, 0.131685
2023/06/21 13:03:20.538, True, 1.658, 0.131609
2023/06/21 13:03:21.042, True, 1.326, 0.131838
2023/06/21 13:03:21.538, True, 1.685, 0.134585
2023/06/21 13:03:22.042, True, 1.658, 0.130999
2023/06/21 13:03:22.546, True, 1.658, 0.132296
2023/06/21 13:03:23.042, True, 1.685, 0.132296
2023/06/21 13:03:23.546, True, 1.658, 0.131685
2023/06/21 13:03:24.042, True, 1.686, 0.131533
2023/06/21 13:03:24.546, True, 1.326, 0.130541
2023/06/21 13:03:25.050, True, 1.658, 0.131762
2023/06/21 13:03:25.546, True, 1.685, 0.132448
2023/06/21 13:03:26.050, True, 1.658, 0.131533
2023/06/21 13:03:26.554, True, 1.659, 0.132601
2023/06/21 13:03:27.050, True, 1.684, 0.132601
2023/06/21 13:03:27.554, True, 1.660, 0.132448
2023/06/21 13:03:28.058, True, 1.325, 0.132906
2023/06/21 13:03:28.554, True, 1.685, 0.132525
2023/06/21 13:03:29.058, True, 1.658, 0.130159
2023/06/21 13:03:29.554, True, 1.348, 0.132448
2023/06/21 13:03:30.058, True, 1.658, 0.129549
2023/06/21 13:03:30.562, True, 1.658, 0.134432
2023/06/21 13:03:31.058, True, 1.685, 0.129168
2023/06/21 13:03:31.562, True, 1.326, 0.130846
2023/06/21 13:03:32.066, True, 1.658, 0.131914
2023/06/21 13:03:32.562, True, 1.685, 0.130846
2023/06/21 13:03:33.066, True, 1.660, 0.132677
2023/06/21 13:03:33.562, True, 1.682, 0.130541
2023/06/21 13:03:34.066, True, 1.659, 0.132906
2023/06/21 13:03:34.570, True, 1.659, 0.131991
2023/06/21 13:03:35.066, True, 1.347, 0.132448
2023/06/21 13:03:35.570, True, 1.658, 0.134051
2023/06/21 13:03:36.074, True, 1.658, 0.130922
2023/06/21 13:03:36.570, True, 1.348, 0.132906
2023/06/21 13:03:37.074, True, 1.658, 0.132525
2023/06/21 13:03:37.578, True, 1.329, 0.131685
2023/06/21 13:03:38.074, True, 1.682, 0.131685
2023/06/21 13:03:38.578, True, 1.660, 0.129397
2023/06/21 13:03:39.082, True, 1.656, 0.131075
2023/06/21 13:03:39.578, True, 1.348, 0.132982
2023/06/21 13:03:40.082, True, 1.326, 0.130083
2023/06/21 13:03:40.586, True, 1.658, 0.131914
2023/06/21 13:03:41.082, True, 1.685, 0.132525
2023/06/21 13:03:41.586, True, 1.326, 0.131533
2023/06/21 13:03:42.090, True, 1.658, 0.133059
2023/06/21 13:03:42.586, True, 1.685, 0.131762
2023/06/21 13:03:43.090, True, 1.328, 0.130694
2023/06/21 13:03:43.594, True, 1.655, 0.129549
2023/06/21 13:03:44.090, True, 1.685, 0.134127
2023/06/21 13:03:44.594, True, 1.658, 0.131456
2023/06/21 13:03:45.098, True, 1.327, 0.131304
2023/06/21 13:03:45.594, True, 1.685, 0.131075
2023/06/21 13:03:46.098, True, 1.326, 0.132219
2023/06/21 13:03:46.602, True, 1.658, 0.130617
2023/06/21 13:03:47.098, True, 1.685, 0.129625
2023/06/21 13:03:47.602, True, 1.993, 0.130922
2023/06/21 13:03:48.106, True, 1.656, 0.129473
2023/06/21 13:03:48.602, True, 1.347, 0.131914
2023/06/21 13:03:49.106, True, 1.661, 0.129397
2023/06/21 13:03:49.610, True, 1.986, 0.131838
2023/06/21 13:03:50.106, True, 1.685, 0.132601
2023/06/21 13:03:50.610, True, 1.657, 0.129473
2023/06/21 13:03:51.114, True, 1.327, 0.131914
2023/06/21 13:03:51.610, True, 1.685, 0.131838
2023/06/21 13:03:52.114, True, 1.657, 0.130465
2023/06/21 13:03:52.618, True, 1.659, 0.130999
2023/06/21 13:03:53.114, True, 1.687, 0.130541
2023/06/21 13:03:53.618, True, 1.655, 0.131304
2023/06/21 13:03:54.122, True, 1.660, 0.130007
2023/06/21 13:03:54.626, True, 1.656, 0.130694
2023/06/21 13:03:55.122, True, 1.685, 0.132143
2023/06/21 13:03:55.626, True, 1.660, 0.131991
2023/06/21 13:03:56.130, True, 1.656, 0.130465
2023/06/21 13:03:56.625, True, 1.348, 0.130312
2023/06/21 13:03:57.130, True, 1.658, 0.130999
2023/06/21 13:03:57.633, True, 1.658, 0.132601
2023/06/21 13:03:58.138, True, 1.660, 0.130541
2023/06/21 13:03:58.634, True, 1.346, 0.130617
2023/06/21 13:03:59.138, True, 1.658, 0.129473
2023/06/21 13:03:59.642, True, 1.658, 0.129854
2023/06/21 13:04:00.138, True, 1.684, 0.131456
2023/06/21 13:04:00.642, True, 1.658, 0.131838
2023/06/21 13:04:01.146, True, 1.329, 0.133059
2023/06/21 13:04:01.650, True, 1.655, 0.131380
2023/06/21 13:04:02.146, True, 1.685, 0.132525
2023/06/21 13:04:02.650, True, 1.658, 0.130617
2023/06/21 13:04:03.154, True, 1.658, 0.130846
2023/06/21 13:04:03.650, True, 2.022, 0.130465
2023/06/21 13:04:04.154, True, 1.658, 0.129778
2023/06/21 13:04:04.658, True, 1.328, 0.133135
2023/06/21 13:04:05.154, True, 2.019, 0.131762
2023/06/21 13:04:05.657, True, 1.659, 0.130007
2023/06/21 13:04:06.162, True, 1.326, 0.130617
2023/06/21 13:04:06.658, True, 1.685, 0.130541
2023/06/21 13:04:07.162, True, 1.658, 0.131914
2023/06/21 13:04:07.666, True, 1.658, 0.130083
2023/06/21 13:04:08.170, True, 1.660, 0.130388
2023/06/21 13:04:08.666, True, 1.346, 0.133669
2023/06/21 13:04:09.170, True, 1.658, 0.130083
2023/06/21 13:04:09.666, True, 1.685, 0.131838
2023/06/21 13:04:10.170, True, 1.328, 0.131151
2023/06/21 13:04:10.674, True, 1.657, 0.132143
2023/06/21 13:04:11.170, True, 1.685, 0.131380
2023/06/21 13:04:11.674, True, 1.327, 0.132982
2023/06/21 13:04:12.178, True, 1.660, 0.129320